Weather History for 14474 - February, 2014

Change the Weather History Date:

Sunday, February 2, 2014

  Actual Average Record
Temperature  
Mean Temperature 52 °F -  
Max Temperature 57 °F - - ()
Min Temperature 46 °F - - ()
Degree Days  
Heating Degree Days 14    
Growing Degree Days 2 (Base 50)    
Moisture  
Dew Point 43 °F    
Average Humidity 71    
Maximum Humidity 94    
Minimum Humidity 45    
Precipitation  
Precipitation 0.00 in - - ()
Sea Level Pressure  
Sea Level Pressure 29.89 in    
Wind  
Wind Speed 6 mph ()    
Max Wind Speed 16 mph    
Max Gust Speed -    
Visibility 7.4 miles    
Events Rain    
T = Trace of Precipitation, MM = Missing Value Source: Averaged Metar Reports

Daily Weather History Graph

Daily Weather History Graph

Search for Another Location

Airport or City:

Trip Planner

Search our weather history database for the weather conditions in past years. The results will help you decide how hot, cold, wet, or windy it might be!

Date:

Astronomy

Feb. 02, 2014 Rise Set
Actual Time 7:00 AM CET 5:01 PM CET
Civil Twilight 6:30 AM CET 5:31 PM CET
Nautical Twilight 5:56 AM CET 6:05 PM CET
Astronomical Twilight 5:23 AM CET 6:38 PM CET
Moon 8:11 AM CET (2/2) 8:30 PM CET (2/2)
Length of Visible Light 11h 01m
Length of Day
10h 01m
Waxing Crescent, 9% of the Moon is Illuminated
Feb 2
Waxing Crescent
Feb 6
First Quarter
Feb 15
Full
Feb 22
Last Quarter
Mar 1
New

Hourly Weather History & Observations

Time (CET) Temp. Windchill Dew Point Humidity Pressure Visibility Wind Dir Wind Speed Gust Speed Precip Events Conditions
12:00 AM 53.6 °F - 50.0 °F 88% 29.89 in 6.2 mi ENE 6.9 mph - N/A Rain Light Rain
12:30 AM 53.6 °F - 48.2 °F 82% 29.86 in 6.2 mi NE 6.9 mph - N/A Rain Light Rain
1:00 AM 53 °F - 47 °F 75% 29.88 in 9 mi NE 6.7 mph - -   Partly Cloudy
1:00 AM 53.6 °F - 48.2 °F 82% 29.86 in 6.2 mi NNE 6.9 mph - N/A   Partly Cloudy
1:30 AM 51.8 °F - 48.2 °F 88% 29.86 in 6.2 mi Variable 1.2 mph - N/A   Partly Cloudy
2:00 AM 53.6 °F - 48.2 °F 82% 29.86 in 6.2 mi Calm Calm - N/A   Partly Cloudy
2:30 AM 51.8 °F - 48.2 °F 88% 29.86 in 6.2 mi Calm Calm - N/A   Partly Cloudy
3:00 AM 51.8 °F - 48.2 °F 88% 29.86 in 6.2 mi NE 2.3 mph - N/A   Partly Cloudy
3:30 AM 53.6 °F - 46.4 °F 77% 29.83 in - Calm Calm - N/A   Clear
4:00 AM 52 °F - 47 °F 79% 29.85 in 9 mi NE 2.2 mph - -   Overcast
4:00 AM 51.8 °F - 48.2 °F 88% 29.83 in 6.2 mi Variable 1.2 mph - N/A   Partly Cloudy
4:30 AM 50.0 °F - 48.2 °F 94% 29.83 in 6.2 mi East 6.9 mph - N/A   Scattered Clouds
5:00 AM 50.0 °F - 48.2 °F 94% 29.86 in 6.2 mi ENE 12.7 mph - N/A   Scattered Clouds
5:30 AM 50.0 °F - 48.2 °F 94% 29.89 in 6.2 mi East 9.2 mph - N/A Rain Light Rain
6:00 AM 50.0 °F - 48.2 °F 94% 29.89 in 6.2 mi East 11.5 mph - N/A Rain Light Rain
6:30 AM 50.0 °F - 48.2 °F 94% 29.89 in 6.2 mi ENE 9.2 mph - N/A Rain Light Rain
7:00 AM 51 °F - 46 °F 78% 29.89 in 12 mi ENE 8.9 mph - - Rain Light Rain
7:00 AM 51.8 °F - 46.4 °F 82% 29.89 in 6.2 mi ENE 6.9 mph - N/A Rain Light Rain
7:30 AM 50.0 °F - 46.4 °F 87% 29.89 in 6.2 mi ESE 5.8 mph - N/A Rain Light Rain
8:00 AM 51.8 °F - 46.4 °F 82% 29.89 in 6.2 mi East 6.9 mph - N/A Rain Light Rain
8:30 AM 51.8 °F - 46.4 °F 82% 29.89 in 6.2 mi East 6.9 mph - N/A Rain Light Rain
9:00 AM 51.8 °F - 48.2 °F 88% 29.89 in 6.2 mi East 8.1 mph - N/A   Partly Cloudy
9:30 AM 51.8 °F - 48.2 °F 88% 29.89 in 6.2 mi East 9.2 mph - N/A   Partly Cloudy
10:00 AM 54 °F - 46 °F 68% 29.91 in 12 mi East 8.9 mph - -   Partly Cloudy
10:00 AM 53.6 °F - 46.4 °F 77% 29.89 in 6.2 mi East 8.1 mph - N/A   Partly Cloudy
10:30 AM 55.4 °F - 46.4 °F 72% 29.89 in - ENE 6.9 mph - N/A   Clear
11:00 AM 57.2 °F - 44.6 °F 63% 29.89 in - East 5.8 mph - N/A   Clear
11:30 AM 57.2 °F - 42.8 °F 59% 29.89 in - SE 9.2 mph - N/A   Clear
12:00 PM 57.2 °F - 41.0 °F 55% 29.89 in 6.2 mi ESE 9.2 mph - N/A   Partly Cloudy
12:30 PM 55.4 °F - 41.0 °F 58% 29.89 in 6.2 mi SE 11.5 mph - N/A   Partly Cloudy
1:00 PM 56 °F - 43 °F 51% 29.89 in 16 mi SE 11.2 mph - -   Partly Cloudy
1:00 PM 55.4 °F - 42.8 °F 63% 29.89 in 6.2 mi SE 11.5 mph - N/A   Scattered Clouds
1:30 PM 55.4 °F - 41.0 °F 58% 29.89 in 6.2 mi SE 16.1 mph - N/A   Scattered Clouds
2:00 PM 55.4 °F - 41.0 °F 58% 29.89 in 6.2 mi SE 16.1 mph - N/A   Partly Cloudy
2:30 PM 55.4 °F - 39.2 °F 54% 29.89 in 6.2 mi SE 13.8 mph - N/A   Partly Cloudy
3:00 PM 57.2 °F - 42.8 °F 59% 29.86 in - ESE 11.5 mph - N/A   Clear
3:30 PM 57.2 °F - 39.2 °F 51% 29.89 in 6.2 mi SE 11.5 mph - N/A   Partly Cloudy
4:00 PM 56 °F - 41 °F 45% 29.89 in 16 mi East 6.7 mph - -   Overcast
4:00 PM 55.4 °F - 41.0 °F 58% 29.89 in - East 6.9 mph - N/A   Clear
4:30 PM 53.6 °F - 39.2 °F 58% 29.89 in 6.2 mi East 6.9 mph - N/A   Partly Cloudy
5:00 PM 53.6 °F - 41.0 °F 62% 29.89 in 6.2 mi ESE 5.8 mph - N/A   Partly Cloudy
5:30 PM 51.8 °F - 39.2 °F 62% 29.89 in 6.2 mi East 6.9 mph - N/A   Partly Cloudy
6:00 PM 51.8 °F - 37.4 °F 58% 29.89 in - East 5.8 mph - N/A   Clear
6:30 PM 50.0 °F - 37.4 °F 62% 29.89 in - East 5.8 mph - N/A   Clear
7:00 PM 51 °F - 38 °F 49% 29.92 in 16 mi East 6.7 mph - -   Mostly Cloudy
7:00 PM 50.0 °F - 37.4 °F 62% 29.92 in - East 6.9 mph - N/A   Clear
7:30 PM 50.0 °F - 39.2 °F 66% 29.92 in 6.2 mi East 9.2 mph - N/A   Scattered Clouds
8:00 PM 50.0 °F - 37.4 °F 62% 29.89 in 6.2 mi East 6.9 mph - N/A   Partly Cloudy
8:30 PM 51.8 °F - 35.6 °F 54% 29.89 in 6.2 mi ENE 8.1 mph - N/A   Partly Cloudy
9:00 PM 48.2 °F - 37.4 °F 66% 29.92 in 6.2 mi East 6.9 mph - N/A   Partly Cloudy
9:30 PM 50.0 °F - 33.8 °F 54% 29.92 in - East 5.8 mph - N/A   Clear
10:00 PM 47 °F - 36 °F 54% 29.94 in 12 mi East 6.7 mph - -   Scattered Clouds
10:00 PM 46.4 °F 43.5 °F 35.6 °F 66% 29.92 in 6.2 mi East 5.8 mph - N/A   Partly Cloudy
10:30 PM 46.4 °F 42.9 °F 35.6 °F 66% 29.92 in 6.2 mi East 6.9 mph - N/A   Partly Cloudy
11:00 PM 48.2 °F - 33.8 °F 58% 29.92 in 6.2 mi East 8.1 mph - N/A   Partly Cloudy
11:30 PM 46.4 °F 42.9 °F 35.6 °F 66% 29.92 in - East 6.9 mph - N/A   Clear